This demonstration page uses our WeatherBlox Daily Observations layout. Learn more.

38.88101, -77.10428

Hourly Observations for April 8, 2018

Temp ( °F °C ) Dew Point ( °F °C ) Humidity (%) Winds ( mph kmh ) Pressure ( in mb ) Visibility ( mi km ) Precip ( " mm )
12:52 am 00:52 Cloudy 40 4.4 18 -7.8 41 41 N 14 22 29.92 1013 10 16.0934 0 0
1:05 am 01:05 Cloudy 39 3.9 18 -7.8 43 43 N 17 28 29.91 1013 10 16.0934 0 0
1:52 am 01:52 Cloudy 38 3.3 17 -8.3 43 43 NNW 14 22 29.92 1013 10 16.0934 0 0
2:52 am 02:52 Mostly Cloudy 37 2.8 17 -8.3 44 44 N 16 26 29.91 1013 10 16.0934 0 0
3:52 am 03:52 Mostly Cloudy 36 2.2 16 -8.9 44 44 NNW 20 31 29.91 1013 10 16.0934 0 0
4:52 am 04:52 Cloudy 35 1.7 17 -8.3 48 48 NNW 15 24 29.92 1013 10 16.0934 0 0
5:52 am 05:52 Mostly Cloudy 35 1.7 16 -8.9 46 46 NNW 17 28 29.93 1014 10 16.0934 0 0
6:52 am 06:52 Mostly Sunny 35 1.7 16 -8.9 46 46 N 16 26 29.96 1014 10 16.0934 0 0
7:52 am 07:52 Mostly Sunny 36 2.2 16 -8.9 44 44 NNW 12 19 29.98 1015 10 16.0934 0 0
8:52 am 08:52 Mostly Sunny 40 4.4 17 -8.3 40 40 N 15 24 29.99 1016 10 16.0934 0 0
9:52 am 09:52 Mostly Sunny 42 5.6 16 -8.9 35 35 N 12 19 29.99 1016 10 16.0934 0 0
10:52 am 10:52 Mostly Sunny 44 6.7 16 -8.9 32 32 NNW 16 26 30 1016 10 16.0934 0 0
11:52 am 11:52 Mostly Sunny 46 7.8 18 -7.8 32 32 NW 15 24 29.99 1016 10 16.0934 0 0
12:52 pm 12:52 Mostly Sunny 47 8.3 17 -8.3 30 30 WNW 16 26 29.97 1015 10 16.0934 0 0
1:19 pm 13:19 Mostly Sunny 47 8.3 16 -8.9 29 29 NW 12 19 29.97 1015 10 16.0934 0 0
1:52 pm 13:52 Mostly Sunny 48 8.9 17 -8.3 29 29 NNW 13 20 29.97 1015 10 16.0934 0 0
2:52 pm 14:52 Mostly Sunny 50 10 18 -7.8 28 28 WNW 16 26 29.95 1014 10 16.0934 0 0
3:52 pm 15:52 Mostly Sunny 49 9.4 17 -8.3 28 28 NW 14 22 29.96 1014 10 16.0934 0 0
4:52 pm 16:52 Partly Cloudy 50 10 16 -8.9 26 26 W 10 17 29.95 1014 10 16.0934 0 0
5:52 pm 17:52 Mostly Sunny 51 10.6 15 -9.4 24 24 NW 17 28 29.96 1015 10 16.0934 0 0
6:52 pm 18:52 Partly Cloudy 49 9.4 15 -9.4 26 26 NNW 16 26 29.99 1016 10 16.0934 0 0
7:52 pm 19:52 Mostly Cloudy 46 7.8 16 -8.9 30 30 N 14 22 30.01 1016 10 16.0934 0 0
8:52 pm 20:52 Mostly Cloudy 45 7.2 16 -8.9 31 31 N 16 26 30.05 1018 10 16.0934 0 0
9:52 pm 21:52 Mostly Cloudy 42 5.6 16 -8.9 35 35 N 10 17 30.08 1019 10 16.0934 0 0
10:52 pm 22:52 Cloudy 42 5.6 16 -8.9 35 35 N 13 20 30.09 1019 10 16.0934 0 0
11:52 pm 23:52 Cloudy 41 5 15 -9.4 35 35 N 9 15 30.1 1019 10 16.0934 0 0

Powered by AerisWeather